Location: *
(28.3744°N, 81.5492°W)
Time: 03:43:52
(UTC+00:00)

USA 238 DEB - Pass Details

Date: 15 June 2025
Orbit: 899 x 1311 km, 63.4° (Epoch: 11 June)

Event Time Altitude Azimuth Distance (km) Brightness Sun altitude
Rises 03:29:30 0° 326° (NW) 4,107 7.9 -31.1°
Reaches altitude 10° 03:32:13 10° 322° (NW) 3,189 7.0 -31.4°
Maximum altitude 03:39:49 58° 246° (WSW) 1,473 4.3 -32.2°
Enters shadow 03:40:28 56° 227° (SW) 1,497 4.2 -32.3°
